Location: Firdgum
(53.2488°N, 5.5615°E)
Time: 20:52:09
(UTC+00:00)

Cosmos 1346 Rocket - Pass Details

Date: 08 December 2019
Orbit: 524 x 555 km, 81.2° (Epoch: 24 January)

Event Time Altitude Azimuth Distance (km) Brightness Sun altitude
Rises 06:01:26 0° 196° (SSW) 2,648 6.4 -13.4°
Reaches altitude 10° 06:03:34 10° 198° (SSW) 1,764 5.4 -13.1°
Maximum altitude 06:07:26 75° 283° (WNW) 552 2.6 -12.6°
Drops below altitude 10° 06:11:22 10° 11° (N) 1,785 5.3 -12.0°
Sets 06:13:32 0° 13° (NNE) 2,683 6.2 -11.7°
